New Richmond, WI

3:30 PM CDT on September 28, 2016 (GMT -0500)
New Richmond Municipal

Weather History for KRNH - January, 2014

Change the Weather History Date:

Thursday, January 9, 2014

  Actual Average (KMSP) Record (KMSP)
Temperature  
Mean Temperature -4 °F 15 °F  
Max Temperature 17 °F 23 °F 49 °F (2002)
Min Temperature -24 °F 7 °F -32 °F (1977)
Degree Days  
Heating Degree Days 69 50  
Month to date heating degree days 444  
Since 1 July heating degree days 3467  
Cooling Degree Days 0 0  
Month to date cooling degree days 0  
Year to date cooling degree days 0  
Moisture  
Dew Point -3 °F    
Average Humidity 74    
Maximum Humidity 93    
Minimum Humidity 58    
Precipitation  
Precipitation 0.00 in 0.03 in 0.31 in (1924)
Month to date precipitation 0.29  
Year to date precipitation 0.29  
Snow  
Snow 0.00 in 0.40 in 3.80 in (1924)
Month to date snowfall 3.5  
Since 1 July snowfall 25.3  
Snow Depth -    
Sea Level Pressure  
Sea Level Pressure 30.16 in    
Wind  
Wind Speed 7 mph (SSE)    
Max Wind Speed 16 mph    
Max Gust Speed 20 mph    
Visibility 9 miles    
Events      
T = Trace of Precipitation, MM = Missing Value Source: NWS Daily Summary

Daily Weather History Graph

Daily Weather History Graph

Search for Another Location

Airport or City:

Trip Planner

Search our weather history database for the weather conditions in past years. The results will help you decide how hot, cold, wet, or windy it might be!

Date:

Astronomy

Jan. 09, 2014 Rise Set
Actual Time 7:47 AM CST 4:47 PM CST
Civil Twilight 7:14 AM CST 5:20 PM CST
Nautical Twilight 6:37 AM CST 5:57 PM CST
Astronomical Twilight 6:02 AM CST 6:32 PM CST
Moon 12:20 PM CST (1/9) 1:49 AM CST (1/9)
Length of Visible Light 10h 05m
Length of Day
8h 59m
Waxing Gibbous, 66% of the Moon is Illuminated
Jan 9
Waxing Gibbous
Jan 15
Full
Jan 23
Last Quarter
Jan 30
New
Feb 6
First Quarter

Hourly Weather History & Observations

Time (CST) Temp. Windchill Dew Point Humidity Pressure Visibility Wind Dir Wind Speed Gust Speed Precip Events Conditions
12:15 AM -22.0 °F - -27.4 °F 76% 30.41 in 10.0 mi Calm Calm - N/A   Clear
12:35 AM -21.3 °F - -27.0 °F 75% 30.40 in 10.0 mi Calm Calm - N/A   Clear
12:55 AM -22.0 °F - -27.9 °F 74% 30.39 in 10.0 mi Calm Calm - N/A   Clear
1:15 AM -22.7 °F - -28.7 °F 74% 30.40 in 10.0 mi Calm Calm - N/A   Clear
1:35 AM -20.9 °F -31.7 °F -26.9 °F 74% 30.40 in 10.0 mi SE 3.5 mph - N/A   Clear
1:55 AM -24.3 °F - -29.6 °F 76% 30.40 in 10.0 mi Calm Calm - N/A   Clear
2:15 AM -23.1 °F - -29.0 °F 74% 30.40 in 10.0 mi Calm Calm - N/A   Clear
2:35 AM -20.0 °F -37.1 °F -25.2 °F 77% 30.39 in 10.0 mi SE 6.9 mph - N/A   Clear
2:55 AM -18.4 °F -28.9 °F -23.6 °F 77% 30.38 in 10.0 mi SE 3.5 mph - N/A   Clear
3:15 AM -17.9 °F -30.7 °F -23.8 °F 74% 30.37 in 10.0 mi SE 4.6 mph - N/A   Clear
3:35 AM -18.8 °F -37.0 °F -24.3 °F 76% 30.35 in 10.0 mi SE 8.1 mph - N/A   Scattered Clouds
3:55 AM -12.1 °F -28.9 °F -16.8 °F 80% 30.33 in 10.0 mi ESE 8.1 mph - N/A   Mostly Cloudy
4:15 AM -8.5 °F -24.5 °F -13.0 °F 81% 30.32 in 10.0 mi SE 8.1 mph - N/A   Overcast
4:35 AM -6.0 °F -20.1 °F -10.5 °F 81% 30.31 in 10.0 mi SE 6.9 mph - N/A   Overcast
4:55 AM -3.6 °F -17.3 °F -8.1 °F 81% 30.31 in 10.0 mi SSE 6.9 mph - N/A   Overcast
5:15 AM -2.2 °F -16.8 °F -7.4 °F 78% 30.31 in 10.0 mi SSE 8.1 mph - N/A   Overcast
5:35 AM -1.8 °F -13.7 °F -7.2 °F 78% 30.31 in 10.0 mi South 5.8 mph - N/A   Overcast
5:55 AM -1.5 °F -17.1 °F -7.6 °F 75% 30.30 in 10.0 mi South 9.2 mph - N/A   Overcast
6:15 AM -1.3 °F -18.7 °F -7.8 °F 74% 30.30 in 10.0 mi South 11.5 mph - N/A   Overcast
6:35 AM -1.5 °F -19.0 °F -8.9 °F 71% 30.29 in 10.0 mi South 11.5 mph - N/A   Overcast
6:55 AM -1.5 °F -18.1 °F -9.2 °F 70% 30.28 in 10.0 mi SSE 10.4 mph - N/A   Overcast
7:15 AM -1.3 °F -17.8 °F -8.5 °F 72% 30.26 in 10.0 mi SE 10.4 mph 16.1 mph N/A   Overcast
7:35 AM -0.4 °F -14.7 °F -7.8 °F 71% 30.26 in 10.0 mi SSE 8.1 mph - N/A   Overcast
7:55 AM -0.0 °F -15.3 °F -7.6 °F 70% 30.26 in 10.0 mi SSE 9.2 mph - N/A   Overcast
8:15 AM 0.5 °F -14.6 °F -6.9 °F 71% 30.26 in 10.0 mi SSE 9.2 mph - N/A   Overcast
8:35 AM 1.2 °F -12.7 °F -6.7 °F 69% 30.26 in 10.0 mi SSE 8.1 mph - N/A   Overcast
8:55 AM 1.9 °F -12.9 °F -6.5 °F 68% 30.26 in 10.0 mi SSE 9.2 mph - N/A   Overcast
9:15 AM 2.3 °F -11.4 °F -6.2 °F 68% 30.25 in 10.0 mi SSE 8.1 mph - N/A   Overcast
9:35 AM 3.0 °F -12.5 °F -5.8 °F 67% 30.25 in 10.0 mi SSE 10.4 mph - N/A   Overcast
9:55 AM 3.9 °F -12.2 °F -5.6 °F 65% 30.23 in 10.0 mi SSE 11.5 mph - N/A   Mostly Cloudy
10:15 AM 4.6 °F -12.8 °F -4.9 °F 65% 30.23 in 10.0 mi South 13.8 mph 17.3 mph N/A   Scattered Clouds
10:35 AM 5.5 °F -11.6 °F -4.4 °F 64% 30.22 in 10.0 mi SSE 13.8 mph - N/A   Scattered Clouds
10:55 AM 7.2 °F -8.1 °F -3.8 °F 61% 30.20 in 10.0 mi SSE 11.5 mph 16.1 mph N/A   Clear
11:15 AM 7.9 °F -9.3 °F -3.1 °F 61% 30.19 in 10.0 mi SSE 15.0 mph - N/A   Scattered Clouds
11:35 AM 8.6 °F -5.5 °F -2.6 °F 61% 30.17 in 10.0 mi South 10.4 mph 18.4 mph N/A   Clear
11:55 AM 9.5 °F -5.2 °F -2.0 °F 60% 30.16 in 10.0 mi SSE 11.5 mph - N/A   Clear
12:15 PM 10.0 °F -5.9 °F -1.7 °F 59% 30.15 in 10.0 mi South 13.8 mph - N/A   Clear
12:35 PM 10.9 °F -4.7 °F -0.9 °F 59% 30.14 in 10.0 mi South 13.8 mph - N/A   Clear
12:55 PM 12.0 °F -2.0 °F -0.2 °F 58% 30.13 in 10.0 mi SSE 11.5 mph - N/A   Clear
1:15 PM 12.9 °F -3.4 °F 0.7 °F 58% 30.12 in 10.0 mi SSE 16.1 mph - N/A   Clear
1:35 PM 12.9 °F -1.6 °F 1.2 °F 60% 30.11 in 10.0 mi South 12.7 mph - N/A   Clear
1:55 PM 12.7 °F -0.4 °F 1.4 °F 61% 30.11 in 10.0 mi SSE 10.4 mph - N/A   Mostly Cloudy
2:15 PM 12.9 °F -0.2 °F 1.9 °F 62% 30.10 in 10.0 mi SSE 10.4 mph - N/A   Overcast
2:35 PM 13.5 °F 0.5 °F 2.5 °F 62% 30.09 in 10.0 mi SSE 10.4 mph - N/A   Overcast
2:55 PM 14.2 °F 1.4 °F 3.6 °F 63% 30.09 in 10.0 mi SSE 10.4 mph - N/A   Overcast
3:15 PM 14.9 °F 1.6 °F 4.8 °F 64% 30.08 in 10.0 mi SSE 11.5 mph 18.4 mph N/A   Overcast
3:35 PM 15.4 °F 3.8 °F 6.1 °F 67% 30.07 in 10.0 mi SSE 9.2 mph 18.4 mph N/A   Overcast
3:55 PM 16.2 °F 3.9 °F 7.5 °F 69% 30.06 in 10.0 mi SSE 10.4 mph - N/A   Overcast
4:15 PM 16.3 °F 4.1 °F 7.9 °F 69% 30.04 in 10.0 mi SSE 10.4 mph - N/A   Overcast
5:15 PM 15.6 °F 4.0 °F 7.9 °F 72% 30.02 in 10.0 mi SSE 9.2 mph - N/A   Clear
5:35 PM 15.4 °F 1.6 °F 7.5 °F 71% 30.01 in 10.0 mi SSE 12.7 mph - N/A   Clear
5:55 PM 14.9 °F 1.6 °F 6.8 °F 70% 30.01 in 10.0 mi SSE 11.5 mph 19.6 mph N/A   Clear
6:15 PM 14.4 °F 1.6 °F 6.6 °F 71% 30.01 in 10.0 mi SSE 10.4 mph - N/A   Clear
6:35 PM 14.4 °F -0.4 °F 6.8 °F 72% 29.99 in 10.0 mi SSE 13.8 mph - N/A   Clear
6:55 PM 14.0 °F -0.2 °F 7.5 °F 75% 29.99 in 10.0 mi SSE 12.7 mph 18.4 mph N/A   Clear
7:15 PM 14.0 °F -0.2 °F 8.6 °F 79% 29.98 in 10.0 mi SSE 12.7 mph 17.3 mph N/A   Clear
7:35 PM 14.0 °F 1.2 °F 9.1 °F 81% 29.98 in 10.0 mi SSE 10.4 mph - N/A   Clear
7:55 PM 14.5 °F 0.5 °F 10.6 °F 84% 29.98 in 10.0 mi SSE 12.7 mph - N/A   Clear
8:15 PM 14.5 °F 1.1 °F 11.1 °F 86% 29.98 in 10.0 mi SSE 11.5 mph - N/A   Clear
8:35 PM 14.7 °F 1.4 °F 11.8 °F 88% 29.97 in 10.0 mi SSE 11.5 mph - N/A   Clear
8:55 PM 14.9 °F 1.6 °F 12.4 °F 90% 29.97 in 7.0 mi SSE 11.5 mph - N/A   Clear
9:15 PM 15.3 °F 2.0 °F 13.3 °F 92% 29.96 in 7.0 mi SSE 11.5 mph - N/A   Scattered Clouds
9:35 PM 15.8 °F 2.7 °F 14.0 °F 93% 29.96 in 7.0 mi SSE 11.5 mph - N/A   Scattered Clouds
9:55 PM 16.0 °F 2.9 °F 14.0 °F 92% 29.95 in 5.0 mi SSE 11.5 mph 18.4 mph N/A   Overcast
10:15 PM 15.8 °F 2.1 °F 13.6 °F 91% 29.95 in 5.0 mi SSE 12.7 mph - N/A   Overcast
10:35 PM 15.8 °F 3.4 °F 13.8 °F 92% 29.94 in 5.0 mi SSE 10.4 mph - N/A   Overcast
10:55 PM 15.8 °F 2.7 °F 13.6 °F 91% 29.94 in 5.0 mi SSE 11.5 mph - N/A   Overcast
11:15 PM 16.5 °F 4.3 °F 14.2 °F 90% 29.94 in 5.0 mi SSE 10.4 mph - N/A   Overcast
11:35 PM 16.7 °F 3.8 °F 14.7 °F 92% 29.93 in 5.0 mi SSE 11.5 mph 16.1 mph N/A   Overcast
11:55 PM 17.1 °F 5.0 °F 15.3 °F 93% 29.92 in 5.0 mi SSE 10.4 mph - N/A   Overcast